TimeCST,TemperatureF,Dew PointF,Humidity,Sea Level PressureIn,VisibilityMPH,Wind Direction,Wind SpeedMPH,Gust SpeedMPH,PrecipitationIn,Events,Conditions,WindDirDegrees,DateUTC
12:53 AM,-9999,-9999,N/A,30.30,-9999.0,North,-9999.0,-,N/A,,Unknown,0,2009-01-30 06:53:00
1:53 AM,-9999,-9999,N/A,30.31,-9999.0,North,-9999.0,-,N/A,,Unknown,0,2009-01-30 07:53:00
2:53 AM,-9999,-9999,N/A,30.32,-9999.0,North,-9999.0,-,N/A,,Unknown,0,2009-01-30 08:53:00
3:53 AM,-9999,-9999,N/A,30.33,-9999.0,North,-9999.0,-,N/A,,Unknown,0,2009-01-30 09:53:00
4:53 AM,37.4,30.2,75,30.36,10.0,NNW,5.8,-,N/A,,Clear,340,2009-01-30 10:53:00
5:53 AM,37.4,30.2,75,30.37,10.0,NNW,5.8,-,N/A,,Clear,340,2009-01-30 11:53:00
6:53 AM,35.6,30.2,81,30.38,10.0,Calm,Calm,-,N/A,,Clear,0,2009-01-30 12:53:00
7:53 AM,32.0,28.4,87,30.38,5.0,Calm,Calm,-,N/A,,Clear,0,2009-01-30 13:53:00
8:53 AM,41.0,33.8,76,30.40,10.0,Calm,Calm,-,N/A,,Clear,0,2009-01-30 14:53:00
9:53 AM,41.0,33.8,76,30.41,10.0,Calm,Calm,-,N/A,,Clear,0,2009-01-30 15:53:00
10:53 AM,46.4,33.8,62,30.40,10.0,Calm,Calm,-,N/A,,Clear,0,2009-01-30 16:53:00
11:53 AM,53.1,30.9,43,30.37,10.0,Calm,Calm,-,N/A,,Clear,0,2009-01-30 17:53:00
12:53 PM,55.0,27.0,34,30.34,10.0,Variable,3.5,-,N/A,,Clear,0,2009-01-30 18:53:00
1:53 PM,60.1,21.9,23,30.32,10.0,NNW,9.2,16.1,N/A,,Clear,330,2009-01-30 19:53:00
2:53 PM,61.0,23.0,23,30.30,10.0,NW,13.8,-,N/A,,Clear,320,2009-01-30 20:53:00
3:53 PM,61.0,23.0,23,30.29,10.0,WNW,12.7,-,N/A,,Clear,300,2009-01-30 21:53:00
4:53 PM,60.1,21.0,22,30.30,10.0,WNW,6.9,-,N/A,,Clear,290,2009-01-30 22:53:00
5:53 PM,54.0,25.0,33,30.30,6.0,West,3.5,-,N/A,,Clear,260,2009-01-30 23:53:00
6:53 PM,48.9,27.0,43,30.32,10.0,Calm,Calm,-,N/A,,Clear,0,2009-01-31 00:53:00
7:53 PM,46.9,30.0,52,30.34,10.0,Calm,Calm,-,N/A,,Clear,0,2009-01-31 01:53:00
8:53 PM,44.1,32.0,63,30.35,10.0,Calm,Calm,-,N/A,,Clear,0,2009-01-31 02:53:00
9:53 PM,44.1,33.1,65,30.34,10.0,Calm,Calm,-,N/A,,Clear,0,2009-01-31 03:53:00
10:53 PM,41.0,30.9,67,30.33,10.0,Calm,Calm,-,N/A,,Clear,0,2009-01-31 04:53:00
11:53 PM,43.0,28.0,56,30.32,10.0,Calm,Calm,-,N/A,,Clear,0,2009-01-31 05:53:00